Regional Weather Roundup
Issued by NWS Wilmington, NC

Home | Current Version | Previous Version | Text Only | Print | Product List | Glossary On
Versions: 1 2 3 4 5 6 7 8 9 10 11 12 13 14 15 16 17 18 19 20 21 22 23 24 25 26 27 28 29 30 31 32 33 34 35 36 37 38 39 40 41 42 43 44 45 46 47 48 49 50
000
ASUS42 KILM 191813
RWRILM
RWRILM
REGIONAL HOURLY WEATHER ROUNDUP
NATIONAL WEATHER SERVICE WILMINGTON NC
100 PM EST FRI JAN 19 2018

NOTE: "FAIR" INDICATES FEW OR NO CLOUDS BELOW 12,000 FEET WITH NO
SIGNIFICANT WEATHER AND/OR OBSTRUCTIONS TO VISIBILITY.

...............WFO WILMINGTON COUNTY WARNING AREA...............

......COASTAL NC AND SC COUNTIES......

CITY           SKY/WX    TMP DP  RH WIND       PRES   REMARKS
WILMINGTON     FAIR      57  17  21 SW13      30.22F
N MYRTLE BEACH FAIR      49  33  54 S10       30.23F
MYRTLE BEACH   FAIR      57  18  21 W12       30.25F

......INLAND NC AND SC COUNTIES.......

CITY           SKY/WX    TMP DP  RH WIND       PRES   REMARKS
LUMBERTON      FAIR      49  26  41 SW6       30.21F
ELIZABETHTOWN  NOT AVBL
WHITEVILLE     FAIR      54  20  26 SW7       30.22F
FLORENCE       FAIR      53  18  25 SW8       30.22F
DARLINGTON     FAIR      50  23  34 SW6       30.22F
KINGSTREE      FAIR      55   9  15 SW5       30.24F
HARTSVILLE     FAIR      52  23  32 S5        30.20F
BENNETTSVILLE  FAIR      52  25  35 S5        30.21F
CONWAY         FAIR      54  19  26 SW8       30.24F HAZE
GEORGETOWN     FAIR      55  16  21 SW12      30.25F
MARION         FAIR      54  18  24 W7        30.22F

....................REST OF NORTH CAROLINA......................

.........EASTERN NC.........

CITY           SKY/WX    TMP DP  RH WIND       PRES   REMARKS
CAPE HATTERAS  FAIR      46  28  49 VRB6      30.19F
JACKSONVILLE   FAIR      54  21  27 SW9       30.21F
MOREHEAD CITY  FAIR      48  32  53 SW10      30.21F
KENANSVILLE    FAIR      54  19  26 SW8       30.21F
NEW BERN       FAIR      54  21  27 W9        30.20F
ELIZABETH CITY FAIR      47  31  53 SW10      30.16F

.........CENTRAL NC.........

CITY           SKY/WX    TMP DP  RH WIND       PRES   REMARKS
RALEIGH DURHAM FAIR      45  19  35 S3        30.20F
ROCKY MOUNT    NOT AVBL
ROANOKE RAPIDS NOT AVBL
FAYETTEVILLE   FAIR      51  22  31 SW5       30.20F
HOFFMAN        FAIR      50  22  34 CALM      30.20F

.........WESTERN NC.........

CITY           SKY/WX    TMP DP  RH WIND       PRES   REMARKS
CHARLOTTE      FAIR      51  20  29 CALM      30.20F
GREENSBORO     FAIR      50   0  12 NW5       30.17F
HICKORY        NOT AVBL
BOONE          NOT AVBL
ASHEVILLE      NOT AVBL

.....................REST OF SOUTH CAROLINA.....................

.........EASTERN SC.........

CITY           SKY/WX    TMP DP  RH WIND       PRES   REMARKS
CHARLESTON     FAIR      59  16  18 W8        30.26F
BEAUFORT MCAS  FAIR      56  15  20 W12       30.28F
HILTON HEAD    SUNNY     54  16  22 W10       30.30F

.........CENTRAL SC.........

CITY           SKY/WX    TMP DP  RH WIND       PRES   REMARKS
COLUMBIA       FAIR      54  21  27 W7        30.22F
ORANGEBURG     FAIR      55  14  19 W10       30.23F
SUMTER SHAW    FAIR      53  17  24 SW6       30.20F

.........WESTERN SC.........

CITY           SKY/WX    TMP DP  RH WIND       PRES   REMARKS
GREENVILLE     NOT AVBL
ROCK HILL      FAIR      49  24  37 S5        30.19F
ANDERSON       FAIR      51  15  23 W7        30.21F
CLEMSON        NOT AVBL
GREENWOOD      FAIR      49  19  30 VRB6      30.23F


...................COASTAL AND OFFSHORE REPORTS..................

................LOCAL PIERS AND NC RESERVE................


STATION/POSITION TIME  SKY/WX   TEMP    WIND        PRES    VSBY
                                AIR SEA DIR/SP/G
                 (UTC)          (F)     (DEG/KT/KT) (MB)    (MI)
JOHNY MRCER PIER 1736            54 47  230/  9/ 15 1023.6F
NC RESRV MASNBRO 1645            45     270/  4     1024.0
OCEAN CREST PIER NOT AVBL
SPRINGMAID  PIER 1736                               1027.2F


................COASTAL AND OFFSHORE BUOYS................


STATION/POSITION TIME  SKY/WX   TEMP    WIND        PRES    VSBY
                                AIR SEA DIR/SP/G
                 (UTC)          (F)     (DEG/KT/KT) (MB)    (MI)
DIMNDSHOAL 41025 1800            49 47  280/ 14/ 17 1022.7
CAPE LOOKOUT     1800                   240/  9/ 12 1023.2F
ONSLOW BAY 41036 NOT AVBL
ONSLOW BAY 41064 1708            50 57  250/ 12/ 16 1024.3F
ONSLOW BAY 41159 1800               57                N/A
WVE H/P(F/S)=  4/10 SWL H/P/D(F/S/D)=  2/100/12

MASNBO INL 41110 1759               45                N/A
WVE H/P(F/S)=  2/11 SWL H/P/D(F/S/D)=  2/110/11

WILM HARBR 41108 1800               46                N/A
WVE H/P(F/S)=  2/11 SWL H/P/D(F/S/D)=  2/130/11

27SE WRITB 41037 1708            50 60  250/ 16/ 23 1024.7F
FRYING PAN 41013 1800            52 63  260/ 16/ 19 1024.3
SUNST NRSH 41024 1708            44     240/  8/ 10 1024.6F
CAPRS NRSH 41029 1708            44 48  240/ 14/ 17 1025.4F
EDISTO     41004 1800            54     260/ 14/ 17 1024.7


..........OFFSHORE BUOYS BEYOND 100 NM OFFSHORE...........
.....IN A TRIANGLE---HAT TO BERMUDA TO BAHAMAS TO HAT.....


STATION/POSITION TIME  SKY/WX   TEMP    WIND        PRES    VSBY
                                AIR SEA DIR/SP/G
                 (UTC)          (F)     (DEG/KT/KT) (MB)    (MI)
150E HAT   41001 NOT AVBL
W BERMUDA  41048 1800            63 70  310/ 12/ 17 1022.4
ATLANTIC S 41049 1750            71 77  340/ 14/ 17 1019.6F
WVE H/P(F/S)= 11/11 SWL H/P/D(F/S/D)= 10/330/11

E BAHAMAS  41046 1800            74 79   20/ 16/ 21 1020.4
NE BAHAMAS 41047 1750            66      20/ 10/ 16 1023.3F
WVE H/P(F/S)= 14/13 SWL H/P/D(F/S/D)= 13/ 10/13

120E CANVRL41010 NOT AVBL

END



USA.gov is the U.S. government's official web portal to all federal, state and local government web resources and services.